TimeCDT,TemperatureF,Dew PointF,Humidity,Sea Level PressureIn,VisibilityMPH,Wind Direction,Wind SpeedMPH,Gust SpeedMPH,PrecipitationIn,Events,Conditions,WindDirDegrees,DateUTC
12:15 AM,57.0,52.2,84,29.93,10.0,SE,3.5,-,N/A,,Clear,130,2012-10-22 05:15:00
12:55 AM,55.9,51.8,86,29.93,10.0,SE,3.5,-,N/A,,Clear,140,2012-10-22 05:55:00
1:35 AM,55.8,51.8,87,29.92,10.0,SE,3.5,-,N/A,,Clear,130,2012-10-22 06:35:00
1:55 AM,54.7,51.6,89,29.92,10.0,Calm,Calm,-,N/A,,Mostly Cloudy,0,2012-10-22 06:55:00
2:15 AM,55.0,52.0,89,29.92,10.0,Calm,Calm,-,N/A,,Scattered Clouds,0,2012-10-22 07:15:00
2:35 AM,55.4,52.0,88,29.92,10.0,Calm,Calm,-,N/A,,Mostly Cloudy,0,2012-10-22 07:35:00
2:55 AM,55.4,52.0,88,29.91,10.0,East,3.5,-,N/A,,Mostly Cloudy,100,2012-10-22 07:55:00
3:15 AM,54.1,51.6,91,29.91,10.0,East,4.6,-,N/A,,Scattered Clouds,80,2012-10-22 08:15:00
3:55 AM,53.6,51.3,92,29.89,10.0,East,5.8,-,N/A,,Clear,80,2012-10-22 08:55:00
4:15 AM,54.1,52.0,92,29.89,10.0,East,5.8,-,N/A,,Scattered Clouds,80,2012-10-22 09:15:00
4:35 AM,53.8,51.8,93,29.88,10.0,ENE,5.8,-,N/A,,Mostly Cloudy,70,2012-10-22 09:35:00
4:55 AM,54.9,52.9,93,29.89,10.0,Calm,Calm,-,N/A,,Overcast,0,2012-10-22 09:55:00
5:15 AM,55.6,53.6,93,29.89,10.0,ENE,3.5,-,N/A,,Overcast,60,2012-10-22 10:15:00
5:35 AM,56.3,54.0,92,29.89,10.0,ENE,5.8,-,N/A,,Overcast,70,2012-10-22 10:35:00
5:55 AM,56.8,54.5,92,29.90,7.0,ESE,3.5,-,N/A,,Overcast,110,2012-10-22 10:55:00
6:15 AM,57.0,55.0,93,29.89,7.0,Calm,Calm,-,N/A,,Overcast,0,2012-10-22 11:15:00
6:35 AM,56.5,54.7,94,29.89,7.0,Calm,Calm,-,N/A,,Scattered Clouds,0,2012-10-22 11:35:00
6:55 AM,57.0,55.0,93,29.90,7.0,Calm,Calm,-,N/A,,Clear,0,2012-10-22 11:55:00
7:15 AM,56.7,55.2,95,29.89,5.0,Calm,Calm,-,N/A,,Scattered Clouds,0,2012-10-22 12:15:00
7:35 AM,56.8,55.2,94,29.91,5.0,Calm,Calm,-,N/A,,Mostly Cloudy,0,2012-10-22 12:35:00
7:55 AM,57.4,55.6,94,29.91,5.0,Calm,Calm,-,N/A,,Overcast,0,2012-10-22 12:55:00
8:15 AM,58.1,56.3,94,29.91,5.0,Calm,Calm,-,N/A,,Overcast,0,2012-10-22 13:15:00
8:35 AM,58.8,56.7,93,29.91,5.0,Calm,Calm,-,N/A,Thunderstorm,Overcast,0,2012-10-22 13:35:00
8:55 AM,59.9,58.1,94,29.90,5.0,East,3.5,-,N/A,Rain-Thunderstorm,Light Thunderstorms and Rain,90,2012-10-22 13:55:00
9:15 AM,60.1,58.1,93,29.91,5.0,South,3.5,-,N/A,Thunderstorm,Overcast,170,2012-10-22 14:15:00
9:35 AM,60.3,59.0,96,29.91,0.2,SSE,8.1,-,0.52,Rain-Thunderstorm,Heavy Thunderstorms and Rain,150,2012-10-22 14:35:00
9:55 AM,61.0,59.7,96,29.89,2.5,North,5.8,-,0.70,Rain-Thunderstorm,Thunderstorms and Rain,360,2012-10-22 14:55:00
10:15 AM,60.8,59.4,95,29.89,1.8,NNE,4.6,-,N/A,Thunderstorm,Overcast,20,2012-10-22 15:15:00
10:35 AM,60.1,59.0,96,29.90,3.0,ENE,9.2,-,N/A,Rain-Thunderstorm,Light Thunderstorms and Rain,70,2012-10-22 15:35:00
10:55 AM,60.8,59.4,95,29.86,3.0,NNE,10.4,-,N/A,Rain,Light Rain,20,2012-10-22 15:55:00
11:15 AM,61.7,60.4,96,29.88,4.0,North,4.6,-,N/A,,Overcast,350,2012-10-22 16:15:00
11:35 AM,61.9,60.3,94,29.91,4.0,ESE,3.5,-,N/A,,Overcast,120,2012-10-22 16:35:00
11:55 AM,62.2,60.6,94,29.90,4.0,ENE,5.8,-,N/A,,Overcast,70,2012-10-22 16:55:00
12:15 PM,62.2,60.4,94,29.90,4.0,East,4.6,-,N/A,,Unknown,80,2012-10-22 17:15:00
12:35 PM,62.6,60.8,94,29.89,3.0,NE,5.8,-,N/A,,Overcast,50,2012-10-22 17:35:00
12:55 PM,63.0,61.2,94,29.89,3.0,ENE,5.8,-,N/A,,Overcast,70,2012-10-22 17:55:00
1:15 PM,63.5,61.3,93,29.89,4.0,East,3.5,-,N/A,,Overcast,100,2012-10-22 18:15:00
1:35 PM,63.7,61.7,93,29.88,1.8,Calm,Calm,-,N/A,,Overcast,0,2012-10-22 18:35:00
1:55 PM,63.9,61.9,93,29.88,2.0,Calm,Calm,-,N/A,,Overcast,0,2012-10-22 18:55:00
2:15 PM,64.4,62.6,94,29.88,3.0,East,3.5,-,N/A,,Overcast,100,2012-10-22 19:15:00
2:35 PM,64.6,62.8,94,29.88,1.5,Calm,Calm,-,N/A,,Overcast,0,2012-10-22 19:35:00
2:55 PM,64.6,62.8,94,29.87,3.0,East,3.5,-,N/A,,Overcast,90,2012-10-22 19:55:00
3:15 PM,64.8,63.1,94,29.86,1.0,SE,5.8,-,N/A,,Overcast,130,2012-10-22 20:15:00
3:35 PM,64.8,63.5,96,29.86,1.8,SE,5.8,-,N/A,,Overcast,130,2012-10-22 20:35:00
3:55 PM,64.9,63.5,95,29.86,1.2,ESE,3.5,-,N/A,,Overcast,120,2012-10-22 20:55:00
4:15 PM,64.9,63.5,95,29.85,1.0,SE,4.6,-,N/A,,Overcast,130,2012-10-22 21:15:00
4:35 PM,64.8,63.5,96,29.85,1.5,Calm,Calm,-,N/A,,Overcast,0,2012-10-22 21:35:00
5:15 PM,64.9,63.5,95,29.87,2.0,Calm,Calm,-,N/A,,Overcast,0,2012-10-22 22:15:00
5:35 PM,64.8,63.5,96,29.88,3.0,SSE,4.6,-,N/A,,Overcast,160,2012-10-22 22:35:00
5:55 PM,64.6,63.1,95,29.88,3.0,Calm,Calm,-,N/A,,Overcast,0,2012-10-22 22:55:00
6:15 PM,64.4,63.0,95,29.89,1.8,Calm,Calm,-,N/A,,Overcast,0,2012-10-22 23:15:00
6:35 PM,63.9,62.6,96,29.89,2.0,Calm,Calm,-,N/A,,Overcast,0,2012-10-22 23:35:00
6:55 PM,63.7,62.6,96,29.89,1.8,Calm,Calm,-,N/A,,Overcast,0,2012-10-22 23:55:00
7:15 PM,63.5,62.6,97,29.89,2.0,Calm,Calm,-,N/A,,Overcast,0,2012-10-23 00:15:00
7:35 PM,63.5,62.2,96,29.88,2.0,NE,4.6,-,N/A,,Overcast,50,2012-10-23 00:35:00
7:55 PM,63.5,62.2,96,29.88,1.8,Calm,Calm,-,N/A,,Overcast,0,2012-10-23 00:55:00
8:15 PM,63.3,62.1,96,29.88,2.5,Calm,Calm,-,N/A,,Overcast,0,2012-10-23 01:15:00
8:35 PM,62.8,61.7,96,29.88,1.2,North,4.6,-,N/A,,Overcast,10,2012-10-23 01:35:00
8:55 PM,62.8,61.7,96,29.88,2.5,NNE,3.5,-,N/A,,Overcast,30,2012-10-23 01:55:00
9:15 PM,62.6,61.7,97,29.89,2.5,North,4.6,-,N/A,,Overcast,10,2012-10-23 02:15:00
9:35 PM,61.9,60.8,96,29.89,2.5,NNE,4.6,-,N/A,,Overcast,30,2012-10-23 02:35:00
9:55 PM,62.1,61.0,96,29.89,2.0,NNE,3.5,-,N/A,,Overcast,20,2012-10-23 02:55:00
10:15 PM,61.9,60.8,96,29.89,2.0,NE,3.5,-,N/A,,Overcast,50,2012-10-23 03:15:00
10:35 PM,62.1,61.0,96,29.89,2.5,NE,4.6,-,0.02,Rain,Light Rain,40,2012-10-23 03:35:00
10:55 PM,62.2,61.0,96,29.89,2.5,NE,6.9,-,0.02,,Overcast,50,2012-10-23 03:55:00
11:15 PM,62.2,61.0,96,29.88,3.0,NE,5.8,-,N/A,,Overcast,40,2012-10-23 04:15:00
11:35 PM,62.2,61.0,96,29.88,3.0,ENE,6.9,-,N/A,,Overcast,60,2012-10-23 04:35:00
11:55 PM,62.2,61.0,96,29.88,3.0,NE,5.8,-,N/A,,Overcast,50,2012-10-23 04:55:00